Weather History for KCTB - April, 2013

Change the Weather History Date:

Sunday, April 14, 2013

  Actual Average Record
Temperature  
Mean Temperature 24 °F 40 °F  
Max Temperature 27 °F 53 °F 80 °F (1963)
Min Temperature 20 °F 28 °F 0 °F (1935)
Degree Days  
Heating Degree Days 41 24  
Month to date heating degree days 405 368  
Since 1 July heating degree days 7199 7466  
Cooling Degree Days 0 0  
Month to date cooling degree days 0 0  
Year to date cooling degree days 0 0  
Moisture  
Dew Point 19 °F    
Average Humidity 83    
Maximum Humidity 91    
Minimum Humidity 74    
Precipitation  
Precipitation T in 0.03 in 0.55 in (1928)
Month to date precipitation 0.13 0.30  
Year to date precipitation 1.43 1.21  
Snow  
Snow 0.00 in - - ()
Snow Depth 1.00 in    
Sea Level Pressure  
Sea Level Pressure 29.91 in    
Wind  
Wind Speed 24 mph (NNW)    
Max Wind Speed 36 mph    
Max Gust Speed 43 mph    
Visibility 4 miles    
Events Snow    
T = Trace of Precipitation, MM = Missing Value Source: NWS Daily Summary

Daily Weather History Graph

Daily Weather History Graph

Search for Another Location

Airport or City:

Trip Planner

Search our weather history database for the weather conditions in past years. The results will help you decide how hot, cold, wet, or windy it might be!

Date:

Astronomy

Apr. 14, 2013 Rise Set
Actual Time 6:40 AM MDT 8:19 PM MDT
Civil Twilight 6:07 AM MDT 8:53 PM MDT
Nautical Twilight 5:27 AM MDT 9:33 PM MDT
Astronomical Twilight 4:43 AM MDT 10:17 PM MDT
Moon 9:05 AM MDT (4/14) 12:00 AM MDT (4/14)
Length of Visible Light 14h 45m
Length of Day
13h 39m
Waxing Crescent, 17% of the Moon is Illuminated
Apr 14
Waxing Crescent
Apr 18
First Quarter
Apr 25
Full
May 2
Last Quarter
May 9
New

Hourly Weather History & Observations

Time (MDT) Temp. Windchill Dew Point Humidity Pressure Visibility Wind Dir Wind Speed Gust Speed Precip Events Conditions
12:09 AM 26.6 °F 11.7 °F 21.2 °F 80% 29.66 in 10.0 mi NW 24.2 mph 34.5 mph N/A   Overcast
12:28 AM 26.6 °F 10.6 °F 21.2 °F 80% 29.66 in 10.0 mi NW 28.8 mph 38.0 mph N/A   Overcast
12:56 AM 26.1 °F 10.4 °F 21.0 °F 81% 29.73 in 10.0 mi NW 26.5 mph 39.1 mph N/A   Overcast
1:56 AM 26.1 °F 10.7 °F 21.0 °F 81% 29.74 in 10.0 mi NW 25.3 mph 33.4 mph N/A   Overcast
2:48 AM 24.8 °F 8.1 °F 21.2 °F 86% 29.68 in 6.0 mi NW 28.8 mph 40.3 mph 0.00 in   Overcast
2:56 AM 25.0 °F 7.1 °F 21.0 °F 85% 29.73 in 6.0 mi NW 34.5 mph 41.4 mph 0.00 in   Overcast
3:06 AM 24.8 °F 7.6 °F 21.2 °F 86% 29.68 in 6.0 mi NW 31.1 mph 39.1 mph N/A   Overcast
3:53 AM 24.8 °F 8.4 °F 21.2 °F 86% 29.70 in 4.0 mi NW 27.6 mph 36.8 mph 0.00 in Snow Light Snow
3:56 AM 25.0 °F 8.4 °F 21.0 °F 85% 29.77 in 4.0 mi NW 28.8 mph 36.8 mph 0.00 in Snow Light Snow
4:56 AM 25.0 °F 8.9 °F 21.0 °F 85% 29.80 in 4.0 mi NW 26.5 mph 34.5 mph 0.00 in Snow Light Snow
5:56 AM 24.1 °F 7.4 °F 19.9 °F 84% 29.83 in 7.0 mi NNW 27.6 mph 38.0 mph 0.00 in Snow Light Snow
6:56 AM 24.1 °F 7.7 °F 19.9 °F 84% 29.85 in 10.0 mi NNW 26.5 mph 34.5 mph 0.00 in   Overcast
7:56 AM 24.1 °F 7.1 °F 19.9 °F 84% 29.88 in 7.0 mi NNW 28.8 mph 34.5 mph 0.00 in Snow Light Snow
8:10 AM 24.8 °F 8.4 °F 19.4 °F 80% 29.78 in 7.0 mi NNW 27.6 mph 33.4 mph 0.00 in   Overcast
8:56 AM 25.0 °F 8.9 °F 19.9 °F 81% 29.90 in 10.0 mi NNW 26.5 mph 34.5 mph 0.00 in   Overcast
9:23 AM 24.8 °F 8.7 °F 19.4 °F 80% 29.80 in 10.0 mi NNW 26.5 mph 38.0 mph N/A   Overcast
9:48 AM 26.6 °F 10.3 °F 19.4 °F 74% 29.81 in 10.0 mi NNW 29.9 mph 39.1 mph N/A   Overcast
9:56 AM 26.1 °F 9.8 °F 19.9 °F 78% 29.91 in 10.0 mi NNW 28.8 mph 35.7 mph N/A   Overcast
10:43 AM 24.8 °F 8.7 °F 19.4 °F 80% 29.82 in 2.5 mi NNW 26.5 mph 36.8 mph 0.00 in Snow Light Snow
10:51 AM 24.8 °F 9.0 °F 19.4 °F 80% 29.83 in 1.8 mi NNW 25.3 mph 33.4 mph 0.00 in Snow Light Snow
10:56 AM 25.0 °F 8.9 °F 19.9 °F 81% 29.94 in 1.5 mi NNW 26.5 mph 33.4 mph 0.00 in Snow Light Snow
11:23 AM 26.6 °F 11.7 °F 19.4 °F 74% 29.84 in 2.0 mi NNW 24.2 mph 34.5 mph 0.00 in Snow Light Snow
11:33 AM 24.8 °F 8.4 °F 19.4 °F 80% 29.84 in 4.0 mi NNW 27.6 mph 36.8 mph 0.00 in Snow Light Snow
11:51 AM 24.8 °F 7.9 °F 19.4 °F 80% 29.85 in 4.0 mi NNW 29.9 mph 38.0 mph 0.00 in Snow Light Snow
11:56 AM 26.1 °F 10.1 °F 19.0 °F 75% 29.96 in 4.0 mi NNW 27.6 mph 38.0 mph 0.00 in Snow Light Snow
12:03 PM 26.6 °F 10.3 °F 19.4 °F 74% 29.85 in 7.0 mi NNW 29.9 mph 36.8 mph 0.00 in   Overcast
12:34 PM 26.6 °F 11.4 °F 19.4 °F 74% 29.86 in 2.5 mi NNW 25.3 mph 35.7 mph 0.00 in Snow Light Snow
12:46 PM 26.6 °F 11.1 °F 21.2 °F 80% 29.87 in 1.2 mi NNW 26.5 mph - 0.00 in Snow Light Snow
12:56 PM 26.1 °F 9.8 °F 21.0 °F 81% 29.99 in 1.2 mi North 28.8 mph - 0.00 in Snow Light Snow
1:13 PM 26.6 °F 10.0 °F 19.4 °F 74% 29.87 in 2.5 mi NNW 31.1 mph 38.0 mph 0.00 in Snow Light Snow
1:20 PM 26.6 °F 10.3 °F 19.4 °F 74% 29.87 in 5.0 mi NNW 29.9 mph 38.0 mph 0.00 in Snow Light Snow
1:56 PM 25.0 °F 8.1 °F 19.9 °F 81% 30.00 in 2.5 mi North 29.9 mph 38.0 mph 0.00 in Snow Light Snow
2:16 PM 26.6 °F 10.0 °F 19.4 °F 74% 29.89 in 4.0 mi North 31.1 mph 39.1 mph 0.00 in Snow Light Snow
2:56 PM 25.0 °F 8.9 °F 18.0 °F 75% 30.03 in 4.0 mi North 26.5 mph 36.8 mph 0.00 in Snow Light Snow
3:45 PM 24.8 °F 8.7 °F 17.6 °F 74% 29.92 in 2.0 mi North 26.5 mph 32.2 mph 0.00 in Snow Light Snow
3:56 PM 25.0 °F 9.5 °F 18.0 °F 75% 30.04 in 2.5 mi North 24.2 mph 34.5 mph 0.00 in Snow Light Snow
4:03 PM 24.8 °F 9.3 °F 17.6 °F 74% 29.92 in 4.0 mi North 24.2 mph 33.4 mph 0.00 in Snow Light Snow
4:16 PM 24.8 °F 8.4 °F 17.6 °F 74% 29.92 in 6.0 mi North 27.6 mph 32.2 mph 0.00 in Snow Light Snow
4:45 PM 24.8 °F 9.0 °F 17.6 °F 74% 29.93 in 6.0 mi North 25.3 mph - 0.00 in Snow Light Snow
4:56 PM 24.1 °F 8.0 °F 18.0 °F 77% 30.05 in 2.5 mi North 25.3 mph 31.1 mph 0.00 in Snow Light Snow
5:19 PM 23.0 °F 6.3 °F 17.6 °F 80% 29.94 in 5.0 mi North 26.5 mph - 0.00 in Snow Light Snow
5:29 PM 24.8 °F 9.6 °F 17.6 °F 74% 29.94 in 8.0 mi North 23.0 mph 28.8 mph 0.00 in   Overcast
5:56 PM 24.1 °F 8.7 °F 18.0 °F 77% 30.08 in 5.0 mi North 23.0 mph - 0.00 in Snow Light Snow
6:05 PM 23.0 °F 8.0 °F 17.6 °F 80% 29.95 in 2.5 mi North 20.7 mph 27.6 mph 0.00 in Snow Light Snow
6:10 PM 24.8 °F 9.6 °F 19.4 °F 80% 29.95 in 1.2 mi North 23.0 mph - 0.00 in Snow Light Snow
6:17 PM 23.0 °F 7.6 °F 17.6 °F 80% 29.95 in 0.8 mi North 21.9 mph - 0.00 in Snow Light Snow
6:34 PM 23.0 °F 7.2 °F 17.6 °F 80% 29.96 in 1.8 mi North 23.0 mph - 0.00 in Snow Light Snow
6:44 PM 23.0 °F 7.6 °F 19.4 °F 86% 29.96 in 1.0 mi North 21.9 mph - 0.00 in Snow Light Snow
6:56 PM 21.9 °F 5.8 °F 18.0 °F 85% 30.09 in 1.2 mi North 23.0 mph 28.8 mph 0.00 in Snow Light Snow
7:51 PM 21.2 °F 6.0 °F 17.6 °F 86% 29.98 in 2.5 mi North 19.6 mph - 0.00 in Snow Light Snow
7:56 PM 21.9 °F 7.3 °F 18.0 °F 85% 30.11 in 2.5 mi NNW 18.4 mph - 0.00 in Snow Light Snow
8:10 PM 21.2 °F 5.6 °F 17.6 °F 86% 29.98 in 1.2 mi North 20.7 mph - 0.00 in Snow Light Snow
8:29 PM 21.2 °F 6.4 °F 17.6 °F 86% 29.99 in 2.0 mi North 18.4 mph - 0.00 in Snow Light Snow
8:56 PM 21.0 °F 6.6 °F 18.0 °F 88% 30.12 in 2.5 mi North 17.3 mph - 0.00 in Snow Light Snow
9:05 PM 21.2 °F 7.3 °F 17.6 °F 86% 29.99 in 2.5 mi North 16.1 mph - 0.00 in Snow Light Snow
9:33 PM 21.2 °F 6.8 °F 17.6 °F 86% 30.00 in 1.5 mi North 17.3 mph - 0.00 in Snow Light Snow
9:40 PM 21.2 °F 6.4 °F 17.6 °F 86% 30.00 in 1.8 mi North 18.4 mph - 0.00 in Snow Light Snow
9:56 PM 21.0 °F 5.7 °F 17.1 °F 85% 30.14 in 1.8 mi North 19.6 mph - 0.00 in Snow Light Snow
10:25 PM 19.4 °F 4.1 °F 17.6 °F 93% 30.01 in 2.5 mi North 18.4 mph - 0.00 in Snow Light Snow
10:56 PM 19.9 °F 5.7 °F 17.1 °F 89% 30.14 in 2.0 mi North 16.1 mph - 0.00 in Snow Light Snow
11:11 PM 19.4 °F 4.1 °F 17.6 °F 93% 30.01 in 1.8 mi North 18.4 mph - 0.00 in Snow Light Snow
11:26 PM 19.4 °F 5.0 °F 17.6 °F 93% 30.00 in 1.5 mi North 16.1 mph - 0.00 in Snow Light Snow
11:52 PM 19.4 °F 4.1 °F 17.6 °F 93% 30.00 in 1.2 mi North 18.4 mph - 0.00 in Snow Light Snow
11:56 PM 19.9 °F 7.9 °F 17.1 °F 89% 30.13 in 1.2 mi North 11.5 mph 20.7 mph 0.00 in Snow Light Snow